This is the latest recevied weather packets stored in our database for station/object AA9VI-10. If no packets are shown the sender has not sent any weather packets the latest 10 day(s).
| Time | Temp. | Humidity | Pressure | Rain* | Wind** | Luminosity | Snow |
|---|---|---|---|---|---|---|---|
| 1778019016 | 13.33° C | 35% | 1008.1 hPa | 0 mm | - | - | - |
| 1778018416 | 13.33° C | 35% | 1008.4 hPa | 0 mm | - | - | - |
| 1778017816 | 13.33° C | 34% | 1008.5 hPa | 0 mm | - | - | - |
| 1778017217 | 13.33° C | 34% | 1008.3 hPa | 0 mm | - | - | - |
| 1778016616 | 13.33° C | 34% | 1008.2 hPa | 0 mm | - | - | - |
| 1778016017 | 13.33° C | 35% | 1008.1 hPa | 0 mm | - | - | - |
| 1778015416 | 13.33° C | 34% | 1008.2 hPa | 0 mm | - | - | - |
| 1778014816 | 13.33° C | 33% | 1008.2 hPa | 0 mm | - | - | - |
| 1778014217 | 13.33° C | 35% | 1008.2 hPa | 0 mm | - | - | - |
| 1778013617 | 13.33° C | 31% | 1008.4 hPa | 0 mm | - | - | - |
| 1778013016 | 13.33° C | 31% | 1008.5 hPa | 0 mm | - | - | - |
| 1778012416 | 13.33° C | 33% | 1008.6 hPa | 0 mm | - | - | - |
| 1778011816 | 13.33° C | 34% | 1008.6 hPa | 0 mm | - | - | - |
| 1778011217 | 13.33° C | 32% | 1008.7 hPa | 0 mm | - | - | - |
| 1778010616 | 13.89° C | 33% | 1008.7 hPa | 0 mm | - | - | - |
| 1778010016 | 13.89° C | 31% | 1008.6 hPa | 0 mm | - | - | - |
| 1778009416 | 13.89° C | 29% | 1008.6 hPa | 0 mm | - | - | - |
| 1778008816 | 13.89° C | 33% | 1008.8 hPa | 0 mm | - | - | - |
| 1778008217 | 13.89° C | 33% | 1008.8 hPa | 0 mm | - | - | - |
| 1778007616 | 13.89° C | 37% | 1008.8 hPa | 0 mm | - | - | - |
| 1778007016 | 13.89° C | 30% | 1008.8 hPa | 0 mm | - | - | - |
| 1778006416 | 13.33° C | 33% | 1008.8 hPa | 0 mm | - | - | - |
| 1778005816 | 13.33° C | 34% | 1008.8 hPa | 0 mm | - | - | - |
| 1778005216 | 13.33° C | 31% | 1008.8 hPa | 0 mm | - | - | - |
| 1778004616 | 13.33° C | 36% | 1008.8 hPa | 0 mm | - | - | - |
* Rain latest hour (hover to see other rain measurements)
** Current wind speed in m/s (hover to see current wind gust speed)